Location: Henham
(51.9333°N, 0.2500°E)
Time: 11:45:38
(UTC+00:00)

ARGOS - Visible Passes

Search period start: 19 January 2020 00:00
Search period end: 29 January 2020 00:00
Orbit: 820 x 835 km, 98.5° (Epoch: 19 January)

Date Brightness Start Highest point End Pass type
(mag) Time Alt. Az. Time Alt. Az. Time Alt. Az.
19 Jan 4.5 17:55:40 18° NE 17:55:52 18° NE 17:59:25 10° N visible
19 Jan 3.8 19:37:10 44° N 19:37:10 44° N 19:40:49 10° NNW visible
19 Jan 5.8 21:18:40 14° WNW 21:18:40 14° WNW 21:20:00 10° NW visible
20 Jan 4.7 17:36:38 13° ENE 17:37:33 14° NE 17:40:14 10° NNE visible
20 Jan 3.6 19:18:08 47° NNE 19:18:08 47° NNE 19:22:08 10° N visible
20 Jan 5.4 20:59:39 20° WNW 20:59:39 20° WNW 21:01:54 10° NW visible
21 Jan 5.0 17:18:07 10° ENE 17:19:16 11° NE 17:20:26 10° NNE visible
21 Jan 3.6 18:59:07 42° NE 18:59:07 42° NE 19:03:25 10° N visible
21 Jan 5.0 20:40:37 26° WNW 20:40:37 26° WNW 20:43:35 10° NNW visible
22 Jan 6.2 07:07:36 10° ENE 07:09:42 12° E 07:11:47 10° ESE visible
22 Jan 3.8 18:40:06 34° NE 18:40:06 34° NE 18:44:37 10° N visible
22 Jan 4.5 20:21:35 36° NW 20:21:35 36° NW 20:25:09 10° NNW visible
23 Jan 4.1 18:21:03 26° ENE 18:21:22 26° ENE 18:25:45 10° N visible
23 Jan 3.9 20:02:34 48° NW 20:02:34 48° NW 20:06:38 10° NNW visible
23 Jan 6.1 21:44:03 10° WNW 21:44:03 10° WNW 21:44:05 10° WNW visible
24 Jan 4.4 18:02:01 19° ENE 18:02:58 20° NE 18:06:49 10° N visible
24 Jan 3.4 19:43:31 63° NNW 19:43:31 63° NNW 19:48:02 10° NNW visible
24 Jan 5.8 21:25:01 15° WNW 21:25:01 15° WNW 21:26:54 10° NW visible
25 Jan 4.7 17:42:59 14° ENE 17:44:38 16° NE 17:47:43 10° NNE visible
25 Jan 3.1 19:24:29 65° NE 19:24:29 65° NE 19:29:23 10° NNW visible
25 Jan 5.4 21:05:59 20° WNW 21:05:59 20° WNW 21:08:55 10° NW visible
26 Jan 4.9 17:24:22 10° ENE 17:26:20 12° NE 17:28:18 10° NNE visible
26 Jan 3.2 19:05:26 51° ENE 19:05:26 51° ENE 19:10:41 10° N visible
26 Jan 4.9 20:46:56 28° WNW 20:46:56 28° WNW 20:50:42 10° NNW visible
27 Jan 3.6 18:46:23 37° ENE 18:46:56 38° ENE 18:51:55 10° N visible
27 Jan 4.4 20:27:53 39° WNW 20:27:53 39° WNW 20:32:18 10° NNW visible
28 Jan 3.9 18:27:20 27° E 18:28:29 29° ENE 18:33:06 10° N visible
28 Jan 3.7 20:08:50 55° W 20:08:50 55° W 20:13:49 10° NNW visible
